Location: ????
(32.0223°N, 35.1797°E)
Time: 05:06:29
(UTC+00:00)

Daily predictions for brighter satellites

Satellite Brightness Start Highest point End
(mag) Time Altitude Azimuth Time Altitude Azimuth Time Altitude Azimuth
COSMOS 2406 3.9 01:17:21 51° E 01:17:21 51° E 01:22:13 10° NNE
H-2A R/B 4.2 01:13:16 10° SE 01:15:25 24° ESE 01:15:25 24° ESE
Lacrosse 5 rocket 4.2 01:24:34 10° NE 01:24:34 10° NE 01:24:39 10° NE
GOES 2 Rocket 4.5 01:42:42 39° S 01:43:35 41° SSE 01:50:03 10° E
Cosmos 292 Rocket 4.3 01:44:26 35° N 01:46:16 56° ENE 01:51:01 10° SSE
CENTAUR R/B 3.5 01:48:27 30° NNW 01:48:27 30° NNW 01:52:45 10° NNE
CZ-4B R/B 4.1 01:48:43 10° ESE 01:51:17 20° ENE 01:53:52 10° NNE
CBERS 1 LM4 rocket 4.2 01:47:31 10° NNE 01:52:24 88° E 01:52:52 73° S
DELTA 2 R/B (1) 3.9 02:00:56 44° NNW 02:02:24 57° NNE 02:07:55 10° E
Cosmos 1461 2.9 02:07:49 59° SW 02:08:38 85° WNW 02:13:17 10° NNE
ERS-2 2.9 02:05:40 10° SSE 02:09:12 52° ENE 02:12:44 10° N
Cosmos 1331 Rocket 3.9 02:08:41 49° WNW 02:09:43 59° WSW 02:14:50 10° S
Nadezhda 4 Rocket 3.8 02:07:56 10° S 02:14:03 83° W 02:20:11 10° N
Cosmos 1908 3.1 02:11:57 19° N 02:14:40 88° E 02:18:34 10° S
SL-14 R/B 3.6 02:13:50 10° S 02:17:43 66° E 02:21:41 10° NNE
Cosmos 2180 Rocket 4.4 02:12:51 10° NNW 02:19:01 66° W 02:25:06 10° S
ALOS 2.1 02:18:49 10° N 02:23:29 77° WNW 02:28:08 10° SSW
Cosmos 1833 Rocket 2.9 02:21:36 29° SW 02:24:10 48° WNW 02:29:38 10° N
Meteor 1-24 Rocket 3.8 02:23:19 10° S 02:28:47 77° E 02:34:30 10° N
CZ-2C R/B 3.9 02:25:50 10° NNW 02:27:56 20° NW 02:27:56 20° NW
ADEOS 3.5 02:26:07 10° N 02:31:15 60° WNW 02:36:22 10° SSW
ATLAS 3B R/B 2.6 02:26:34 13° SW 02:32:27 60° WNW 02:38:59 10° NNE
ISS -1.6 02:34:11 15° NNW 02:34:11 15° NNW 02:35:32 10° N
Cosmos 1300 4.0 02:31:44 10° N 02:35:22 41° E 02:38:59 10° SSE
Cosmos 1689 Rocket 4.5 02:33:05 10° SE 02:35:33 25° ENE 02:38:01 10° NNE
USA 290 2.0 02:33:36 13° SSW 02:36:23 76° WNW 02:39:36 10° NNE
Geosat 3.9 02:33:06 10° SSE 02:38:07 83° WSW 02:43:09 10° NNW
CZ-2C R/B 1.9 02:38:39 25° SW 02:39:03 26° SSW 02:41:50 10° SSE
Cosmos 1302 Rocket 4.0 02:34:15 10° NNW 02:39:29 64° WSW 02:44:40 10° S
Cosmos 2369 4.4 02:36:29 10° N 02:42:02 56° ENE 02:47:32 10° SE
Cosmos 2082 Rocket 2.1 02:36:59 10° SSW 02:42:31 62° WNW 02:48:05 10° NNE
Cosmos 1484 Rocket 3.3 02:41:35 10° N 02:45:05 34° WNW 02:48:31 10° SW
Cosmos 1626 2.7 02:43:15 10° SSW 02:46:37 34° W 02:50:01 10° NNW
Cosmos 2228 3.0 02:42:49 10° N 02:47:12 90° WNW 02:51:35 10° S
COSMO-SKYMED 1 3.3 02:44:07 10° SSE 02:48:21 55° ENE 02:52:35 10° N
Cosmos 1606 Rocket 3.6 02:44:24 10° N 02:48:53 88° E 02:53:21 10° S
ADEOS Rocket 3.5 02:44:16 10° SSW 02:48:58 28° W 02:53:38 10° NW
METEOR-M 4.2 02:45:41 10° N 02:50:51 52° WNW 02:56:00 10° SSW
CZ-4B R/B 2.9 02:47:17 10° N 02:51:24 87° WNW 02:55:41 10° SSW
Meteor 2-5 Rocket 3.9 02:46:28 10° SSW 02:51:52 47° WNW 02:57:24 10° N
H-2A R/B 3.7 02:50:18 10° SW 02:52:30 17° WSW 02:52:30 17° WSW
H-2A R/B 4.4 02:51:51 10° NNE 02:55:26 38° E 02:59:03 10° SSE
Cosmos 1656 4.0 02:52:07 10° NW 02:57:28 43° WSW 03:02:46 10° S
CZ-3A R/B 4.3 02:57:49 10° SSE 02:58:54 11° SE 03:00:17 10° ESE
Cosmos 1428 Rocket 4.5 02:54:12 10° S 03:00:27 82° W 03:06:41 10° N
Lacrosse 5 rocket 3.2 03:00:14 11° NW 03:00:31 11° NW 03:01:33 10° NNW
ATLAS CENTAUR R/B 3.8 02:57:37 10° S 03:01:00 25° ESE 03:04:15 10° NE
Okean 1-7 Rocket 3.6 03:01:28 10° S 03:06:01 79° W 03:10:33 10° N
Meteor 1-31 Rocket 3.8 03:05:48 10° NNW 03:09:01 25° WNW 03:12:15 10° SW
Cosmos 2026 Rocket 4.1 03:05:16 10° SSW 03:11:31 62° W 03:17:51 10° N
Cosmos 1697 Rocket 2.8 03:09:26 10° NNW 03:15:00 60° WSW 03:20:33 10° S
Meteor PRIRODA 3.9 03:11:42 10° N 03:15:11 44° WNW 03:18:41 10° SSW
Cosmos 2058 Rocket 3.1 03:14:08 10° N 03:18:38 90° NW 03:23:06 10° S
Cosmos 220 Rocket 4.1 03:15:17 10° NNW 03:19:39 59° WSW 03:23:58 10° S
Cosmos 1992 Rocket 4.0 03:15:20 10° NNW 03:20:31 70° WSW 03:25:41 10° S
PSLV R/B 4.0 03:16:57 10° NNE 03:21:05 89° ESE 03:25:10 10° SSW
Spot 2 4.3 03:16:37 10° NNE 03:21:14 84° WNW 03:26:07 10° SSW
Cosmos 1892 Rocket 4.3 03:19:22 10° SW 03:23:12 31° W 03:27:04 10° NNW
CZ-4B R/B 3.1 03:21:12 10° SW 03:23:24 16° W 03:25:37 10° NW
Cosmos 1455 4.4 03:21:23 10° NNE 03:24:50 30° E 03:28:14 10° SE
Cosmos 2084 4.4 03:25:11 10° WSW 03:28:53 28° NW 03:32:39 10° N
